owner,sensor,date,latitude,longitude,sea_surface_height_above_sea_level,qcFlag 
TCOON,ioos:station:TCOON:003:1,2017-02-01T00:18:00Z,26.8015,-97.4706,1.079,1111122 
TCOON,ioos:station:TCOON:003:1,2017-02-01T01:18:00Z,26.8015,-97.4706,1.065,1111122 
TCOON,ioos:station:TCOON:003:1,2017-02-01T02:18:00Z,26.8015,-97.4706,1.05,1111122 
TCOON,ioos:station:TCOON:003:1,2017-02-01T03:18:00Z,26.8015,-97.4706,1.03,1111122 
TCOON,ioos:station:TCOON:003:1,2017-02-01T04:18:00Z,26.8015,-97.4706,1.009,1111122 
TCOON,ioos:station:TCOON:003:1,2017-02-01T05:18:00Z,26.8015,-97.4706,1.005,1111122 
TCOON,ioos:station:TCOON:003:1,2017-02-01T06:18:00Z,26.8015,-97.4706,1.0,1111122 
TCOON,ioos:station:TCOON:003:1,2017-02-01T07:18:00Z,26.8015,-97.4706,1.005,1111122 
TCOON,ioos:station:TCOON:003:1,2017-02-01T08:18:00Z,26.8015,-97.4706,1.006,1111122 
TCOON,ioos:station:TCOON:003:1,2017-02-01T09:18:00Z,26.8015,-97.4706,1.011,1111122 
TCOON,ioos:station:TCOON:003:1,2017-02-01T10:18:00Z,26.8015,-97.4706,1.011,1111122 
TCOON,ioos:station:TCOON:003:1,2017-02-01T11:18:00Z,26.8015,-97.4706,1.008,1111122 
TCOON,ioos:station:TCOON:003:1,2017-02-01T12:18:00Z,26.8015,-97.4706,1.009,1111122 
TCOON,ioos:station:TCOON:003:1,2017-02-01T13:18:00Z,26.8015,-97.4706,1.009,1111122 
TCOON,ioos:station:TCOON:003:1,2017-02-01T14:18:00Z,26.8015,-97.4706,1.006,1111122 
TCOON,ioos:station:TCOON:003:1,2017-02-01T15:18:00Z,26.8015,-97.4706,1.005,1111122 
TCOON,ioos:station:TCOON:003:1,2017-02-01T16:18:00Z,26.8015,-97.4706,1.011,1111122 
TCOON,ioos:station:TCOON:003:1,2017-02-01T17:18:00Z,26.8015,-97.4706,1.014,1111122 
TCOON,ioos:station:TCOON:003:1,2017-02-01T18:18:00Z,26.8015,-97.4706,1.015,1111122 
TCOON,ioos:station:TCOON:003:1,2017-02-01T19:18:00Z,26.8015,-97.4706,1.01,1111122 
TCOON,ioos:station:TCOON:003:1,2017-02-01T20:18:00Z,26.8015,-97.4706,1.027,1111122 
TCOON,ioos:station:TCOON:003:1,2017-02-01T21:18:00Z,26.8015,-97.4706,1.043,1111122 
TCOON,ioos:station:TCOON:003:1,2017-02-01T22:18:00Z,26.8015,-97.4706,1.068,1111122 
TCOON,ioos:station:TCOON:003:1,2017-02-01T23:18:00Z,26.8015,-97.4706,1.096,1111122 
TCOON,ioos:station:TCOON:003:1,2017-02-02T00:18:00Z,26.8015,-97.4706,1.102,1111122 
TCOON,ioos:station:TCOON:003:1,2017-02-02T01:18:00Z,26.8015,-97.4706,1.098,1111122 
TCOON,ioos:station:TCOON:003:1,2017-02-02T02:18:00Z,26.8015,-97.4706,1.077,1111122 
TCOON,ioos:station:TCOON:003:1,2017-02-02T03:18:00Z,26.8015,-97.4706,1.055,1111122 
TCOON,ioos:station:TCOON:003:1,2017-02-02T04:18:00Z,26.8015,-97.4706,1.037,1111122 
TCOON,ioos:station:TCOON:003:1,2017-02-02T05:18:00Z,26.8015,-97.4706,1.034,1111122 
TCOON,ioos:station:TCOON:003:1,2017-02-02T06:18:00Z,26.8015,-97.4706,1.042,1111122 
TCOON,ioos:station:TCOON:003:1,2017-02-02T07:18:00Z,26.8015,-97.4706,1.042,1111122 
TCOON,ioos:station:TCOON:003:1,2017-02-02T08:18:00Z,26.8015,-97.4706,1.036,1111122 
TCOON,ioos:station:TCOON:003:1,2017-02-02T09:18:00Z,26.8015,-97.4706,1.027,1111122 
TCOON,ioos:station:TCOON:003:1,2017-02-02T10:18:00Z,26.8015,-97.4706,1.024,1111122 
TCOON,ioos:station:TCOON:003:1,2017-02-02T11:18:00Z,26.8015,-97.4706,1.023,1111122 
TCOON,ioos:station:TCOON:003:1,2017-02-02T12:18:00Z,26.8015,-97.4706,1.026,1111122 
TCOON,ioos:station:TCOON:003:1,2017-02-02T13:18:00Z,26.8015,-97.4706,1.029,1111122 
TCOON,ioos:station:TCOON:003:1,2017-02-02T14:18:00Z,26.8015,-97.4706,1.033,1111122 
TCOON,ioos:station:TCOON:003:1,2017-02-02T15:18:00Z,26.8015,-97.4706,1.039,1111122 
TCOON,ioos:station:TCOON:003:1,2017-02-02T16:18:00Z,26.8015,-97.4706,1.04,1111122 
TCOON,ioos:station:TCOON:003:1,2017-02-02T17:18:00Z,26.8015,-97.4706,1.042,1111122 
TCOON,ioos:station:TCOON:003:1,2017-02-02T18:18:00Z,26.8015,-97.4706,1.047,1111122 
TCOON,ioos:station:TCOON:003:1,2017-02-02T19:18:00Z,26.8015,-97.4706,1.042,1111122 
TCOON,ioos:station:TCOON:003:1,2017-02-02T20:18:00Z,26.8015,-97.4706,1.041,1111122 
TCOON,ioos:station:TCOON:003:1,2017-02-02T21:18:00Z,26.8015,-97.4706,1.057,1111122 
TCOON,ioos:station:TCOON:003:1,2017-02-02T22:18:00Z,26.8015,-97.4706,1.07,1111122 
TCOON,ioos:station:TCOON:003:1,2017-02-02T23:18:00Z,26.8015,-97.4706,1.062,1111122 
TCOON,ioos:station:TCOON:003:1,2017-02-03T00:18:00Z,26.8015,-97.4706,1.053,1111122 
TCOON,ioos:station:TCOON:003:1,2017-02-03T01:18:00Z,26.8015,-97.4706,1.036,1111122 
TCOON,ioos:station:TCOON:003:1,2017-02-03T02:18:00Z,26.8015,-97.4706,1.029,1111122 
TCOON,ioos:station:TCOON:003:1,2017-02-03T03:18:00Z,26.8015,-97.4706,1.019,1111122 
TCOON,ioos:station:TCOON:003:1,2017-02-03T04:18:00Z,26.8015,-97.4706,0.998,1111122 
TCOON,ioos:station:TCOON:003:1,2017-02-03T05:18:00Z,26.8015,-97.4706,0.973,1111122 
TCOON,ioos:station:TCOON:003:1,2017-02-03T06:18:00Z,26.8015,-97.4706,0.958,1111122 
TCOON,ioos:station:TCOON:003:1,2017-02-03T07:18:00Z,26.8015,-97.4706,0.963,1111122 
TCOON,ioos:station:TCOON:003:1,2017-02-03T08:18:00Z,26.8015,-97.4706,0.978,1111122 
TCOON,ioos:station:TCOON:003:1,2017-02-03T09:18:00Z,26.8015,-97.4706,0.981,1111122 
TCOON,ioos:station:TCOON:003:1,2017-02-03T10:18:00Z,26.8015,-97.4706,0.976,1111122 
TCOON,ioos:station:TCOON:003:1,2017-02-03T11:18:00Z,26.8015,-97.4706,0.965,1111122 
TCOON,ioos:station:TCOON:003:1,2017-02-03T12:18:00Z,26.8015,-97.4706,0.948,1111122 
TCOON,ioos:station:TCOON:003:1,2017-02-03T13:18:00Z,26.8015,-97.4706,0.94,1111122 
TCOON,ioos:station:TCOON:003:1,2017-02-03T14:18:00Z,26.8015,-97.4706,0.946,1111122 
TCOON,ioos:station:TCOON:003:1,2017-02-03T15:18:00Z,26.8015,-97.4706,0.952,1111122 
TCOON,ioos:station:TCOON:003:1,2017-02-03T16:18:00Z,26.8015,-97.4706,0.944,1111122 
TCOON,ioos:station:TCOON:003:1,2017-02-03T17:18:00Z,26.8015,-97.4706,0.936,1111122 
TCOON,ioos:station:TCOON:003:1,2017-02-03T18:18:00Z,26.8015,-97.4706,0.924,1111122 
TCOON,ioos:station:TCOON:003:1,2017-02-03T19:18:00Z,26.8015,-97.4706,0.918,1111122 
TCOON,ioos:station:TCOON:003:1,2017-02-03T20:18:00Z,26.8015,-97.4706,0.911,1111122 
TCOON,ioos:station:TCOON:003:1,2017-02-03T21:18:00Z,26.8015,-97.4706,0.901,1111122 
TCOON,ioos:station:TCOON:003:1,2017-02-03T22:18:00Z,26.8015,-97.4706,0.9,1111122 
TCOON,ioos:station:TCOON:003:1,2017-02-03T23:30:00Z,26.8015,-97.4706,0.909,1111122 
TCOON,ioos:station:TCOON:003:1,2017-02-04T00:18:00Z,26.8015,-97.4706,0.938,1111122 
TCOON,ioos:station:TCOON:003:1,2017-02-04T01:18:00Z,26.8015,-97.4706,0.973,1111122 
TCOON,ioos:station:TCOON:003:1,2017-02-04T02:18:00Z,26.8015,-97.4706,0.991,1111122 
TCOON,ioos:station:TCOON:003:1,2017-02-04T03:18:00Z,26.8015,-97.4706,1.002,1111122 
TCOON,ioos:station:TCOON:003:1,2017-02-04T04:18:00Z,26.8015,-97.4706,1.027,1111122 
TCOON,ioos:station:TCOON:003:1,2017-02-04T05:18:00Z,26.8015,-97.4706,1.037,1111122 
TCOON,ioos:station:TCOON:003:1,2017-02-04T06:18:00Z,26.8015,-97.4706,1.047,1111122 
TCOON,ioos:station:TCOON:003:1,2017-02-04T07:18:00Z,26.8015,-97.4706,1.061,1111122 
TCOON,ioos:station:TCOON:003:1,2017-02-04T08:18:00Z,26.8015,-97.4706,1.059,1111122 
TCOON,ioos:station:TCOON:003:1,2017-02-04T09:18:00Z,26.8015,-97.4706,1.062,1111122 
TCOON,ioos:station:TCOON:003:1,2017-02-04T10:18:00Z,26.8015,-97.4706,1.073,1111122 
TCOON,ioos:station:TCOON:003:1,2017-02-04T11:18:00Z,26.8015,-97.4706,1.072,1111122 
TCOON,ioos:station:TCOON:003:1,2017-02-04T12:18:00Z,26.8015,-97.4706,1.08,1111122 
TCOON,ioos:station:TCOON:003:1,2017-02-04T13:18:00Z,26.8015,-97.4706,1.09,1111122 
TCOON,ioos:station:TCOON:003:1,2017-02-04T14:18:00Z,26.8015,-97.4706,1.093,1111122 
TCOON,ioos:station:TCOON:003:1,2017-02-04T15:18:00Z,26.8015,-97.4706,1.107,1111122 
TCOON,ioos:station:TCOON:003:1,2017-02-04T16:18:00Z,26.8015,-97.4706,1.13,1111122 
TCOON,ioos:station:TCOON:003:1,2017-02-04T17:18:00Z,26.8015,-97.4706,1.181,1111122 
TCOON,ioos:station:TCOON:003:1,2017-02-04T18:18:00Z,26.8015,-97.4706,1.162,1111122 
TCOON,ioos:station:TCOON:003:1,2017-02-04T19:18:00Z,26.8015,-97.4706,1.129,1111122 
TCOON,ioos:station:TCOON:003:1,2017-02-04T20:18:00Z,26.8015,-97.4706,1.138,1111122 
TCOON,ioos:station:TCOON:003:1,2017-02-04T21:18:00Z,26.8015,-97.4706,1.174,1111122 
TCOON,ioos:station:TCOON:003:1,2017-02-04T22:18:00Z,26.8015,-97.4706,1.149,1111122 
TCOON,ioos:station:TCOON:003:1,2017-02-04T23:18:00Z,26.8015,-97.4706,1.12,1111122 
TCOON,ioos:station:TCOON:003:1,2017-02-05T00:18:00Z,26.8015,-97.4706,1.109,1111122 
TCOON,ioos:station:TCOON:003:1,2017-02-05T01:18:00Z,26.8015,-97.4706,1.102,1111122 
TCOON,ioos:station:TCOON:003:1,2017-02-05T02:18:00Z,26.8015,-97.4706,1.106,1111122 
TCOON,ioos:station:TCOON:003:1,2017-02-05T03:18:00Z,26.8015,-97.4706,1.104,1111122 
TCOON,ioos:station:TCOON:003:1,2017-02-05T04:18:00Z,26.8015,-97.4706,1.099,1111122 
TCOON,ioos:station:TCOON:003:1,2017-02-05T05:18:00Z,26.8015,-97.4706,1.111,1111122 
TCOON,ioos:station:TCOON:003:1,2017-02-05T06:18:00Z,26.8015,-97.4706,1.129,1111122 
TCOON,ioos:station:TCOON:003:1,2017-02-05T07:18:00Z,26.8015,-97.4706,1.138,1111122 
TCOON,ioos:station:TCOON:003:1,2017-02-05T08:18:00Z,26.8015,-97.4706,1.139,1111122 
TCOON,ioos:station:TCOON:003:1,2017-02-05T09:18:00Z,26.8015,-97.4706,1.141,1111122 
TCOON,ioos:station:TCOON:003:1,2017-02-05T10:18:00Z,26.8015,-97.4706,1.15,1111122 
TCOON,ioos:station:TCOON:003:1,2017-02-05T11:18:00Z,26.8015,-97.4706,1.149,1111122 
TCOON,ioos:station:TCOON:003:1,2017-02-05T12:18:00Z,26.8015,-97.4706,1.148,1111122 
TCOON,ioos:station:TCOON:003:1,2017-02-05T13:18:00Z,26.8015,-97.4706,1.145,1111122 
TCOON,ioos:station:TCOON:003:1,2017-02-05T14:18:00Z,26.8015,-97.4706,1.151,1111122 
TCOON,ioos:station:TCOON:003:1,2017-02-05T15:18:00Z,26.8015,-97.4706,1.152,1111122 
TCOON,ioos:station:TCOON:003:1,2017-02-05T16:18:00Z,26.8015,-97.4706,1.151,1111122 
TCOON,ioos:station:TCOON:003:1,2017-02-05T17:18:00Z,26.8015,-97.4706,1.163,1111122 
TCOON,ioos:station:TCOON:003:1,2017-02-05T18:18:00Z,26.8015,-97.4706,1.186,1111122 
TCOON,ioos:station:TCOON:003:1,2017-02-05T19:18:00Z,26.8015,-97.4706,1.233,1111122 
TCOON,ioos:station:TCOON:003:1,2017-02-05T20:18:00Z,26.8015,-97.4706,1.263,1111122 
TCOON,ioos:station:TCOON:003:1,2017-02-05T21:18:00Z,26.8015,-97.4706,1.279,1111122 
TCOON,ioos:station:TCOON:003:1,2017-02-05T22:18:00Z,26.8015,-97.4706,1.291,1111122 
TCOON,ioos:station:TCOON:003:1,2017-02-05T23:18:00Z,26.8015,-97.4706,1.304,1111122 
TCOON,ioos:station:TCOON:003:1,2017-02-06T00:18:00Z,26.8015,-97.4706,1.308,1111122 
TCOON,ioos:station:TCOON:003:1,2017-02-06T01:18:00Z,26.8015,-97.4706,1.299,1111122 
TCOON,ioos:station:TCOON:003:1,2017-02-06T02:18:00Z,26.8015,-97.4706,1.281,1111122 
TCOON,ioos:station:TCOON:003:1,2017-02-06T03:18:00Z,26.8015,-97.4706,1.259,1111122 
TCOON,ioos:station:TCOON:003:1,2017-02-06T04:18:00Z,26.8015,-97.4706,1.244,1111122 
TCOON,ioos:station:TCOON:003:1,2017-02-06T05:18:00Z,26.8015,-97.4706,1.249,1111122 
TCOON,ioos:station:TCOON:003:1,2017-02-06T06:18:00Z,26.8015,-97.4706,1.26,1111122 
TCOON,ioos:station:TCOON:003:1,2017-02-06T07:18:00Z,26.8015,-97.4706,1.267,1111122 
TCOON,ioos:station:TCOON:003:1,2017-02-06T08:18:00Z,26.8015,-97.4706,1.259,1111122 
TCOON,ioos:station:TCOON:003:1,2017-02-06T09:18:00Z,26.8015,-97.4706,1.251,1111122 
TCOON,ioos:station:TCOON:003:1,2017-02-06T10:18:00Z,26.8015,-97.4706,1.251,1111122 
TCOON,ioos:station:TCOON:003:1,2017-02-06T11:18:00Z,26.8015,-97.4706,1.209,1111122 
TCOON,ioos:station:TCOON:003:1,2017-02-06T12:18:00Z,26.8015,-97.4706,1.223,1111122 
TCOON,ioos:station:TCOON:003:1,2017-02-06T13:18:00Z,26.8015,-97.4706,1.2,1111122 
TCOON,ioos:station:TCOON:003:1,2017-02-06T14:18:00Z,26.8015,-97.4706,1.195,1111122 
TCOON,ioos:station:TCOON:003:1,2017-02-06T15:18:00Z,26.8015,-97.4706,1.206,1111122 
TCOON,ioos:station:TCOON:003:1,2017-02-06T16:18:00Z,26.8015,-97.4706,1.211,1111122 
TCOON,ioos:station:TCOON:003:1,2017-02-06T17:18:00Z,26.8015,-97.4706,1.213,1111122 
TCOON,ioos:station:TCOON:003:1,2017-02-06T18:18:00Z,26.8015,-97.4706,1.237,1111122 
TCOON,ioos:station:TCOON:003:1,2017-02-06T19:18:00Z,26.8015,-97.4706,1.29,1111122 
TCOON,ioos:station:TCOON:003:1,2017-02-06T20:18:00Z,26.8015,-97.4706,1.346,1111122 
TCOON,ioos:station:TCOON:003:1,2017-02-06T21:18:00Z,26.8015,-97.4706,1.394,1111122 
TCOON,ioos:station:TCOON:003:1,2017-02-06T22:18:00Z,26.8015,-97.4706,1.429,1111122 
TCOON,ioos:station:TCOON:003:1,2017-02-07T00:12:00Z,26.8015,-97.4706,1.438,1111122 
TCOON,ioos:station:TCOON:003:1,2017-02-07T02:12:00Z,26.8015,-97.4706,1.411,1111122 
TCOON,ioos:station:TCOON:003:1,2017-02-07T03:18:00Z,26.8015,-97.4706,1.384,1111122 
TCOON,ioos:station:TCOON:003:1,2017-02-07T04:18:00Z,26.8015,-97.4706,1.372,1111122 
TCOON,ioos:station:TCOON:003:1,2017-02-07T05:18:00Z,26.8015,-97.4706,1.36,1111122 
TCOON,ioos:station:TCOON:003:1,2017-02-07T06:18:00Z,26.8015,-97.4706,1.332,1111122 
TCOON,ioos:station:TCOON:003:1,2017-02-07T07:18:00Z,26.8015,-97.4706,1.302,1111122 
TCOON,ioos:station:TCOON:003:1,2017-02-07T08:18:00Z,26.8015,-97.4706,1.297,1111122 
TCOON,ioos:station:TCOON:003:1,2017-02-07T09:18:00Z,26.8015,-97.4706,1.303,1111122 
TCOON,ioos:station:TCOON:003:1,2017-02-07T10:18:00Z,26.8015,-97.4706,1.294,1111122 
TCOON,ioos:station:TCOON:003:1,2017-02-07T11:18:00Z,26.8015,-97.4706,1.271,1111122 
TCOON,ioos:station:TCOON:003:1,2017-02-07T12:18:00Z,26.8015,-97.4706,1.255,1111122 
TCOON,ioos:station:TCOON:003:1,2017-02-07T13:18:00Z,26.8015,-97.4706,1.254,1111122 
TCOON,ioos:station:TCOON:003:1,2017-02-07T14:18:00Z,26.8015,-97.4706,1.257,1111122 
TCOON,ioos:station:TCOON:003:1,2017-02-07T15:18:00Z,26.8015,-97.4706,1.273,1111122 
TCOON,ioos:station:TCOON:003:1,2017-02-07T16:18:00Z,26.8015,-97.4706,1.283,1111122 
TCOON,ioos:station:TCOON:003:1,2017-02-07T17:18:00Z,26.8015,-97.4706,1.261,1111122 
TCOON,ioos:station:TCOON:003:1,2017-02-07T18:18:00Z,26.8015,-97.4706,1.225,1111122 
TCOON,ioos:station:TCOON:003:1,2017-02-07T19:18:00Z,26.8015,-97.4706,1.196,1111122 
TCOON,ioos:station:TCOON:003:1,2017-02-07T20:18:00Z,26.8015,-97.4706,1.197,1111122 
TCOON,ioos:station:TCOON:003:1,2017-02-07T21:18:00Z,26.8015,-97.4706,1.218,1111122 
TCOON,ioos:station:TCOON:003:1,2017-02-07T22:24:00Z,26.8015,-97.4706,1.228,1111122 
TCOON,ioos:station:TCOON:003:1,2017-02-07T23:24:00Z,26.8015,-97.4706,1.234,1111122 
TCOON,ioos:station:TCOON:003:1,2017-02-08T00:24:00Z,26.8015,-97.4706,1.264,1111122 
TCOON,ioos:station:TCOON:003:1,2017-02-08T01:24:00Z,26.8015,-97.4706,1.294,1111122 
TCOON,ioos:station:TCOON:003:1,2017-02-08T02:24:00Z,26.8015,-97.4706,1.316,1111122 
TCOON,ioos:station:TCOON:003:1,2017-02-08T03:24:00Z,26.8015,-97.4706,1.329,1111122 
TCOON,ioos:station:TCOON:003:1,2017-02-08T04:24:00Z,26.8015,-97.4706,1.31,1111122 
TCOON,ioos:station:TCOON:003:1,2017-02-08T05:24:00Z,26.8015,-97.4706,1.284,1111122 
TCOON,ioos:station:TCOON:003:1,2017-02-08T06:24:00Z,26.8015,-97.4706,1.26,1111122 
TCOON,ioos:station:TCOON:003:1,2017-02-08T07:24:00Z,26.8015,-97.4706,1.256,1111122 
TCOON,ioos:station:TCOON:003:1,2017-02-08T08:24:00Z,26.8015,-97.4706,1.261,1111122 
TCOON,ioos:station:TCOON:003:1,2017-02-08T09:24:00Z,26.8015,-97.4706,1.256,1111122 
TCOON,ioos:station:TCOON:003:1,2017-02-08T10:24:00Z,26.8015,-97.4706,1.241,1111122 
TCOON,ioos:station:TCOON:003:1,2017-02-08T11:24:00Z,26.8015,-97.4706,1.231,1111122 
TCOON,ioos:station:TCOON:003:1,2017-02-08T12:24:00Z,26.8015,-97.4706,1.223,1111122 
TCOON,ioos:station:TCOON:003:1,2017-02-08T13:24:00Z,26.8015,-97.4706,1.22,1111122 
TCOON,ioos:station:TCOON:003:1,2017-02-08T14:24:00Z,26.8015,-97.4706,1.209,1111122 
TCOON,ioos:station:TCOON:003:1,2017-02-08T15:24:00Z,26.8015,-97.4706,1.195,1111122 
TCOON,ioos:station:TCOON:003:1,2017-02-08T16:24:00Z,26.8015,-97.4706,1.186,1111122 
TCOON,ioos:station:TCOON:003:1,2017-02-08T17:24:00Z,26.8015,-97.4706,1.184,1111122 
TCOON,ioos:station:TCOON:003:1,2017-02-08T18:18:00Z,26.8015,-97.4706,1.182,1111122 
TCOON,ioos:station:TCOON:003:1,2017-02-08T19:18:00Z,26.8015,-97.4706,1.171,1111122 
TCOON,ioos:station:TCOON:003:1,2017-02-08T20:18:00Z,26.8015,-97.4706,1.175,1111122 
TCOON,ioos:station:TCOON:003:1,2017-02-08T21:18:00Z,26.8015,-97.4706,1.193,1111122 
TCOON,ioos:station:TCOON:003:1,2017-02-08T22:18:00Z,26.8015,-97.4706,1.208,1111122 
TCOON,ioos:station:TCOON:003:1,2017-02-08T23:18:00Z,26.8015,-97.4706,1.231,1111122 
TCOON,ioos:station:TCOON:003:1,2017-02-09T00:18:00Z,26.8015,-97.4706,1.247,1111122 
TCOON,ioos:station:TCOON:003:1,2017-02-09T01:18:00Z,26.8015,-97.4706,1.246,1111122 
TCOON,ioos:station:TCOON:003:1,2017-02-09T02:18:00Z,26.8015,-97.4706,1.246,1111122 
TCOON,ioos:station:TCOON:003:1,2017-02-09T03:18:00Z,26.8015,-97.4706,1.246,1111122 
TCOON,ioos:station:TCOON:003:1,2017-02-09T04:18:00Z,26.8015,-97.4706,1.249,1111122 
TCOON,ioos:station:TCOON:003:1,2017-02-09T05:18:00Z,26.8015,-97.4706,1.236,1111122 
TCOON,ioos:station:TCOON:003:1,2017-02-09T06:18:00Z,26.8015,-97.4706,1.189,1111122 
TCOON,ioos:station:TCOON:003:1,2017-02-09T07:18:00Z,26.8015,-97.4706,1.124,1111122 
TCOON,ioos:station:TCOON:003:1,2017-02-09T08:18:00Z,26.8015,-97.4706,1.071,1111122 
TCOON,ioos:station:TCOON:003:1,2017-02-09T09:18:00Z,26.8015,-97.4706,1.03,1111122 
TCOON,ioos:station:TCOON:003:1,2017-02-09T10:18:00Z,26.8015,-97.4706,1.012,1111122 
TCOON,ioos:station:TCOON:003:1,2017-02-09T11:18:00Z,26.8015,-97.4706,1.022,1111122 
TCOON,ioos:station:TCOON:003:1,2017-02-09T12:18:00Z,26.8015,-97.4706,1.008,1111122 
TCOON,ioos:station:TCOON:003:1,2017-02-09T13:18:00Z,26.8015,-97.4706,1.02,1111122 
TCOON,ioos:station:TCOON:003:1,2017-02-09T14:18:00Z,26.8015,-97.4706,1.011,1111122 
TCOON,ioos:station:TCOON:003:1,2017-02-09T19:24:00Z,26.8015,-97.4706,0.989,1111122 
TCOON,ioos:station:TCOON:003:1,2017-02-09T20:24:00Z,26.8015,-97.4706,0.999,1111122 
TCOON,ioos:station:TCOON:003:1,2017-02-09T21:24:00Z,26.8015,-97.4706,1.003,1111122 
TCOON,ioos:station:TCOON:003:1,2017-02-09T22:30:00Z,26.8015,-97.4706,1.004,1111122 
TCOON,ioos:station:TCOON:003:1,2017-02-10T01:18:00Z,26.8015,-97.4706,1.04,1111122 
TCOON,ioos:station:TCOON:003:1,2017-02-10T02:18:00Z,26.8015,-97.4706,1.051,1111122 
TCOON,ioos:station:TCOON:003:1,2017-02-10T03:30:00Z,26.8015,-97.4706,1.069,1111122 
TCOON,ioos:station:TCOON:003:1,2017-02-10T04:24:00Z,26.8015,-97.4706,1.09,1111122 
TCOON,ioos:station:TCOON:003:1,2017-02-10T05:24:00Z,26.8015,-97.4706,1.1,1111122 
TCOON,ioos:station:TCOON:003:1,2017-02-10T06:30:00Z,26.8015,-97.4706,1.1,1111122 
TCOON,ioos:station:TCOON:003:1,2017-02-10T07:42:00Z,26.8015,-97.4706,1.113,1111122 
TCOON,ioos:station:TCOON:003:1,2017-02-10T08:36:00Z,26.8015,-97.4706,1.121,1111122 
TCOON,ioos:station:TCOON:003:1,2017-02-10T09:30:00Z,26.8015,-97.4706,1.13,1111122 
TCOON,ioos:station:TCOON:003:1,2017-02-10T10:18:00Z,26.8015,-97.4706,1.135,1111122 
TCOON,ioos:station:TCOON:003:1,2017-02-10T11:18:00Z,26.8015,-97.4706,1.134,1111122 
TCOON,ioos:station:TCOON:003:1,2017-02-10T12:18:00Z,26.8015,-97.4706,1.138,1111122 
TCOON,ioos:station:TCOON:003:1,2017-02-10T13:18:00Z,26.8015,-97.4706,1.13,1111122 
TCOON,ioos:station:TCOON:003:1,2017-02-10T14:18:00Z,26.8015,-97.4706,1.121,1111122 
TCOON,ioos:station:TCOON:003:1,2017-02-10T15:18:00Z,26.8015,-97.4706,1.119,1111122 
TCOON,ioos:station:TCOON:003:1,2017-02-10T16:18:00Z,26.8015,-97.4706,1.119,1111122 
TCOON,ioos:station:TCOON:003:1,2017-02-10T17:18:00Z,26.8015,-97.4706,1.123,1111122 
TCOON,ioos:station:TCOON:003:1,2017-02-10T18:18:00Z,26.8015,-97.4706,1.134,1111122 
TCOON,ioos:station:TCOON:003:1,2017-02-10T19:18:00Z,26.8015,-97.4706,1.135,1111122 
TCOON,ioos:station:TCOON:003:1,2017-02-10T20:18:00Z,26.8015,-97.4706,1.135,1111122 
TCOON,ioos:station:TCOON:003:1,2017-02-10T21:18:00Z,26.8015,-97.4706,1.15,1111122 
TCOON,ioos:station:TCOON:003:1,2017-02-10T22:18:00Z,26.8015,-97.4706,1.18,1111122 
TCOON,ioos:station:TCOON:003:1,2017-02-10T23:18:00Z,26.8015,-97.4706,1.224,1111122 
TCOON,ioos:station:TCOON:003:1,2017-02-11T00:18:00Z,26.8015,-97.4706,1.262,1111122 
TCOON,ioos:station:TCOON:003:1,2017-02-11T01:18:00Z,26.8015,-97.4706,1.277,1111122 
TCOON,ioos:station:TCOON:003:1,2017-02-11T02:18:00Z,26.8015,-97.4706,1.274,1111122 
TCOON,ioos:station:TCOON:003:1,2017-02-11T03:18:00Z,26.8015,-97.4706,1.246,1111122 
TCOON,ioos:station:TCOON:003:1,2017-02-11T04:18:00Z,26.8015,-97.4706,1.242,1111122 
TCOON,ioos:station:TCOON:003:1,2017-02-11T05:18:00Z,26.8015,-97.4706,1.261,1111122 
TCOON,ioos:station:TCOON:003:1,2017-02-11T06:18:00Z,26.8015,-97.4706,1.28,1111122 
TCOON,ioos:station:TCOON:003:1,2017-02-11T07:18:00Z,26.8015,-97.4706,1.279,1111122 
TCOON,ioos:station:TCOON:003:1,2017-02-11T08:18:00Z,26.8015,-97.4706,1.266,1111122 
TCOON,ioos:station:TCOON:003:1,2017-02-11T09:18:00Z,26.8015,-97.4706,1.262,1111122 
TCOON,ioos:station:TCOON:003:1,2017-02-11T10:18:00Z,26.8015,-97.4706,1.267,1111122 
TCOON,ioos:station:TCOON:003:1,2017-02-11T11:18:00Z,26.8015,-97.4706,1.274,1111122 
TCOON,ioos:station:TCOON:003:1,2017-02-11T12:18:00Z,26.8015,-97.4706,1.281,1111122 
TCOON,ioos:station:TCOON:003:1,2017-02-11T13:18:00Z,26.8015,-97.4706,1.289,1111122 
TCOON,ioos:station:TCOON:003:1,2017-02-11T14:18:00Z,26.8015,-97.4706,1.297,1111122 
TCOON,ioos:station:TCOON:003:1,2017-02-11T15:18:00Z,26.8015,-97.4706,1.299,1111122 
TCOON,ioos:station:TCOON:003:1,2017-02-11T16:18:00Z,26.8015,-97.4706,1.292,1111122 
TCOON,ioos:station:TCOON:003:1,2017-02-11T17:18:00Z,26.8015,-97.4706,1.301,1111122 
TCOON,ioos:station:TCOON:003:1,2017-02-11T18:18:00Z,26.8015,-97.4706,1.334,1111122 
TCOON,ioos:station:TCOON:003:1,2017-02-11T19:18:00Z,26.8015,-97.4706,1.364,1111122 
TCOON,ioos:station:TCOON:003:1,2017-02-11T20:18:00Z,26.8015,-97.4706,1.395,1111122 
TCOON,ioos:station:TCOON:003:1,2017-02-11T21:18:00Z,26.8015,-97.4706,1.432,1111122 
TCOON,ioos:station:TCOON:003:1,2017-02-11T22:18:00Z,26.8015,-97.4706,1.438,1111122 
TCOON,ioos:station:TCOON:003:1,2017-02-11T23:18:00Z,26.8015,-97.4706,1.43,1111122 
TCOON,ioos:station:TCOON:003:1,2017-02-12T00:18:00Z,26.8015,-97.4706,1.416,1111122 
TCOON,ioos:station:TCOON:003:1,2017-02-12T01:18:00Z,26.8015,-97.4706,1.395,1111122 
TCOON,ioos:station:TCOON:003:1,2017-02-12T02:18:00Z,26.8015,-97.4706,1.379,1111122 
TCOON,ioos:station:TCOON:003:1,2017-02-12T03:18:00Z,26.8015,-97.4706,1.379,1111122 
TCOON,ioos:station:TCOON:003:1,2017-02-12T04:18:00Z,26.8015,-97.4706,1.399,1111122 
TCOON,ioos:station:TCOON:003:1,2017-02-12T05:18:00Z,26.8015,-97.4706,1.419,1111122 
TCOON,ioos:station:TCOON:003:1,2017-02-12T06:18:00Z,26.8015,-97.4706,1.41,1111122 
TCOON,ioos:station:TCOON:003:1,2017-02-12T07:18:00Z,26.8015,-97.4706,1.402,1111122 
TCOON,ioos:station:TCOON:003:1,2017-02-12T08:18:00Z,26.8015,-97.4706,1.366,1111122 
TCOON,ioos:station:TCOON:003:1,2017-02-12T09:18:00Z,26.8015,-97.4706,1.342,1111122 
TCOON,ioos:station:TCOON:003:1,2017-02-12T10:18:00Z,26.8015,-97.4706,1.318,1111122 
TCOON,ioos:station:TCOON:003:1,2017-02-12T11:18:00Z,26.8015,-97.4706,1.323,1111122 
TCOON,ioos:station:TCOON:003:1,2017-02-12T12:18:00Z,26.8015,-97.4706,1.328,1111122 
TCOON,ioos:station:TCOON:003:1,2017-02-12T13:18:00Z,26.8015,-97.4706,1.319,1111122 
TCOON,ioos:station:TCOON:003:1,2017-02-12T14:18:00Z,26.8015,-97.4706,1.313,1111122 
TCOON,ioos:station:TCOON:003:1,2017-02-12T15:18:00Z,26.8015,-97.4706,1.313,1111122 
TCOON,ioos:station:TCOON:003:1,2017-02-12T16:18:00Z,26.8015,-97.4706,1.316,1111122 
TCOON,ioos:station:TCOON:003:1,2017-02-12T17:18:00Z,26.8015,-97.4706,1.329,1111122 
TCOON,ioos:station:TCOON:003:1,2017-02-12T18:18:00Z,26.8015,-97.4706,1.348,1111122 
TCOON,ioos:station:TCOON:003:1,2017-02-12T19:18:00Z,26.8015,-97.4706,1.364,1111122 
TCOON,ioos:station:TCOON:003:1,2017-02-12T20:18:00Z,26.8015,-97.4706,1.376,1111122 
TCOON,ioos:station:TCOON:003:1,2017-02-12T21:18:00Z,26.8015,-97.4706,1.386,1111122 
TCOON,ioos:station:TCOON:003:1,2017-02-12T22:18:00Z,26.8015,-97.4706,1.381,1111122 
TCOON,ioos:station:TCOON:003:1,2017-02-12T23:18:00Z,26.8015,-97.4706,1.36,1111122 
TCOON,ioos:station:TCOON:003:1,2017-02-13T00:18:00Z,26.8015,-97.4706,1.307,1111122 
TCOON,ioos:station:TCOON:003:1,2017-02-13T01:18:00Z,26.8015,-97.4706,1.262,1111122 
TCOON,ioos:station:TCOON:003:1,2017-02-13T02:18:00Z,26.8015,-97.4706,1.254,1111122 
TCOON,ioos:station:TCOON:003:1,2017-02-13T03:18:00Z,26.8015,-97.4706,1.26,1111122 
TCOON,ioos:station:TCOON:003:1,2017-02-13T04:18:00Z,26.8015,-97.4706,1.259,1111122 